Flag for Vietnam Weather past 2 weeks in Ho Chi Minh, Vietnam

Now
84 °F

Scattered clouds.


Feels Like: 92 °F
Forecast: 76 / 86 °F
Wind: 9 mph from West

Location: Ho Chi Minh

Current Time: Aug 30, 2014 at 9:58:05 AM

Latest Report: Aug 30, 2014 at 9:30 AM


Visibility: N/A

Pressure: 29.83 "Hg

Humidity: 74%

Dew point: 75 °F

Location of Ho Chi MinhLocation

Historic Weather in Ho Chi Minh — Graph

°F

Ho Chi Minh temperature yesterday

Maximum temperature yesterday: 86 °F (at 10:00 AM)
Minimum temperature yesterday: 77 °F (at 3:30 AM)
Average temperature yesterday: 79 °F

Past Weeks' High & Low Weather Summary

 TemperatureHumidityPressure
High97 °F (Aug 21, 2:30 PM)100% (Aug 19, 4:00 PM)29.89 "Hg (Aug 19, 4:00 PM)
Low75 °F (Aug 15, 5:00 PM)44% (Aug 21, 1:30 PM)29.65 "Hg (Aug 25, 2:00 PM)
Average82 °F79%29.79 "Hg
* Reported Aug 15 8:00 AM — Aug 30 8:30 AM, Ho Chi Minh, Weather by CustomWeather, © 2014

Note: Actual official high and low records may vary slightly from our data, if they occured in-between our weather recording intervals... More about our weather records

Advertising

Ho Chi Minh weather history for previous 24 hours

 ConditionsComfort  
Time TempWeatherWind HumidityBarometerVisibility
8:30 AM
Aug 30
82 °FPartly sunny.5 mph74%29.83 "HgN/A
8:00 AM79 °FPartly sunny.2 mph84%29.83 "HgN/A
7:30 AM79 °FPartly sunny.3 mph89%29.83 "Hg4 mi
7:00 AM77 °FPartly sunny.5 mph89%29.83 "Hg4 mi
6:30 AM77 °FPartly sunny.5 mph89%29.83 "HgN/A
6:00 AM75 °FPartly sunny.3 mph94%29.80 "HgN/A
5:30 AM75 °FPassing clouds.2 mph94%29.80 "HgN/A
5:00 AM75 °FPassing clouds.2 mph94%29.80 "HgN/A
4:30 AM77 °FPassing clouds.1 mph89%29.80 "HgN/A
4:00 AM75 °FPassing clouds.2 mph94%29.80 "HgN/A
2:00 AM75 °FPartly cloudy.2 mph89%29.80 "HgN/A
1:30 AM75 °FPartly cloudy.3 mph89%29.80 "HgN/A
1:00 AM77 °FPartly cloudy.5 mph89%29.83 "HgN/A
12:30 AM77 °FPartly cloudy.5 mph89%29.83 "HgN/A
12:00 AM77 °FPartly cloudy.2 mph89%29.86 "HgN/A
11:30 PM
Aug 29
77 °FPartly cloudy.3 mph89%29.86 "HgN/A
11:00 PM77 °FPartly cloudy.7 mph89%29.86 "HgN/A
10:30 PM77 °FPartly cloudy.3 mph89%29.86 "HgN/A
10:00 PM79 °FPartly cloudy.3 mph84%29.86 "HgN/A
9:30 PM79 °FPartly cloudy.3 mph84%29.86 "HgN/A
9:00 PM79 °FLight rain. Partly cloudy.5 mph84%29.86 "HgN/A
8:30 PM79 °FPassing clouds.3 mph84%29.83 "HgN/A
8:00 PM77 °FPassing clouds.6 mph94%29.83 "HgN/A
7:30 PM77 °FPassing clouds.5 mph89%29.83 "HgN/A
7:00 PM77 °FPassing clouds.5 mph89%29.80 "HgN/A
6:30 PM77 °FPassing clouds.7 mph89%29.80 "HgN/A
6:00 PM77 °FBroken clouds.5 mph89%29.80 "HgN/A
5:30 PM79 °FBroken clouds.3 mph84%29.77 "Hg5 mi
5:00 PM79 °FBroken clouds.7 mph84%29.77 "Hg5 mi
4:30 PM79 °FBroken clouds.7 mph89%29.77 "Hg5 mi
4:00 PM79 °FMore clouds than sun.8 mph89%29.77 "Hg5 mi
3:30 PM79 °FMore clouds than sun.3 mph89%29.77 "Hg5 mi
3:00 PM79 °FMore clouds than sun.7 mph89%29.77 "Hg5 mi
2:30 PM81 °FLight rain. More clouds than sun.6 mph84%29.77 "Hg5 mi
2:00 PM79 °FMore clouds than sun.1 mph89%29.77 "Hg5 mi
1:30 PM81 °FLight rain. More clouds than sun.3 mph79%29.77 "Hg5 mi
1:00 PM81 °FLight rain. Broken clouds.6 mph79%29.80 "Hg5 mi
12:30 PM79 °FThunderstorms. Broken clouds.2 mph89%29.80 "Hg5 mi
12:00 PM79 °FLight rain. Broken clouds.1 mph89%29.83 "Hg5 mi
11:30 AM77 °FRain showers. Broken clouds.10 mph89%29.80 "Hg3 mi
11:00 AM82 °FBroken clouds.1 mph74%29.80 "HgN/A
10:30 AM82 °FSprinkles. Partly sunny.5 mph79%29.83 "Hg5 mi
10:00 AM86 °FPartly sunny.3 mph66%29.83 "HgN/A
9:30 AM84 °FPartly sunny.5 mph70%29.83 "HgN/A
9:00 AM82 °FPartly sunny.5 mph74%29.83 "HgN/A
Weather by CustomWeather, © 2014

See weather overviewHow to use our weather pages